Location: Andrest
(43.3200°N, 0.0641°E)
Time: 22:25:01
(UTC+00:00)

SL-8 Rocket - Pass Details

Date: 27 April 2021
Orbit: 958 x 989 km, 82.9° (Epoch: 13 May)

Event Time Altitude Azimuth Distance (km) Brightness Sun altitude
Rises 23:44:12 0° 357° (N) 3,703 8.2 -32.4°
Reaches altitude 10° 23:46:52 10° 4° (N) 2,754 7.2 -32.5°
Enters shadow 23:52:38 45° 69° (ENE) 1,325 4.7 -32.5°
